Okmulgee, OK

7:56 PM CDT on April 25, 2017 (GMT -0500)
Okmulgee Regional

Weather History for KOKM - March, 2013

Change the Weather History Date:

Monday, March 4, 2013

  Actual Average (KMKO) Record (KMKO)
Temperature  
Mean Temperature 59 °F -  
Max Temperature 73 °F 54 °F 73 °F (1997)
Min Temperature 45 °F 32 °F 6 °F (2002)
Degree Days  
Heating Degree Days 6    
Growing Degree Days 9 (Base 50)    
Moisture  
Dew Point 38 °F    
Average Humidity 47    
Maximum Humidity 70    
Minimum Humidity 24    
Precipitation  
Precipitation 0.00 in - - ()
Sea Level Pressure  
Sea Level Pressure 29.65 in    
Wind  
Wind Speed 12 mph (SSW)    
Max Wind Speed 24 mph    
Max Gust Speed 31 mph    
Visibility 10 miles    
Events      
Averages and records for this station are not official NWS values.
T = Trace of Precipitation, MM = Missing Value Source: NWS Daily Summary

Daily Weather History Graph

Daily Weather History Graph

Search for Another Location

Airport or City:

Trip Planner

Search our weather history database for the weather conditions in past years. The results will help you decide how hot, cold, wet, or windy it might be!

Date:

Astronomy

Mar. 04, 2013 Rise Set
Actual Time 6:49 AM CST 6:21 PM CST
Civil Twilight 6:23 AM CST 6:47 PM CST
Nautical Twilight 5:54 AM CST 7:17 PM CST
Astronomical Twilight 5:24 AM CST 7:46 PM CST
Moon 12:51 AM CST (3/4) 11:13 AM CST (3/4)
Length of Visible Light 12h 23m
Length of Day
11h 32m
Waning Gibbous, 52% of the Moon is Illuminated
Mar 4
Waning Gibbous
Mar 4
Last Quarter
Mar 11
New
Mar 19
First Quarter
Mar 27
Full

Hourly Weather History & Observations

Time (CST) Temp. Windchill Dew Point Humidity Pressure Visibility Wind Dir Wind Speed Gust Speed Precip Events Conditions
12:15 AM 56.5 °F - 32.9 °F 41% 29.67 in 10.0 mi SSE 13.8 mph 20.7 mph N/A   Clear
12:35 AM 56.3 °F - 33.3 °F 42% 29.66 in 10.0 mi SSE 13.8 mph 20.7 mph N/A   Clear
12:55 AM 55.9 °F - 33.8 °F 43% 29.65 in 10.0 mi SSE 15.0 mph 19.6 mph N/A   Clear
1:15 AM 55.8 °F - 34.2 °F 44% 29.65 in 10.0 mi SSE 15.0 mph - N/A   Clear
1:35 AM 55.4 °F - 34.7 °F 46% 29.64 in 10.0 mi SSE 16.1 mph - N/A   Clear
1:55 AM 55.8 °F - 34.9 °F 45% 29.63 in 10.0 mi SSE 15.0 mph - N/A   Clear
2:15 AM 55.4 °F - 35.6 °F 47% 29.62 in 10.0 mi South 17.3 mph - N/A   Clear
2:35 AM 54.5 °F - 36.0 °F 50% 29.61 in 10.0 mi South 11.5 mph 17.3 mph N/A   Clear
2:55 AM 54.5 °F - 36.9 °F 51% 29.61 in 10.0 mi South 15.0 mph - N/A   Clear
3:15 AM 54.5 °F - 37.4 °F 52% 29.60 in 10.0 mi South 10.4 mph 18.4 mph N/A   Clear
3:35 AM 53.8 °F - 37.9 °F 55% 29.60 in 10.0 mi South 11.5 mph - N/A   Clear
4:15 AM 53.2 °F - 39.2 °F 59% 29.60 in 10.0 mi South 9.2 mph - N/A   Clear
4:35 AM 53.4 °F - 39.6 °F 59% 29.60 in 10.0 mi South 11.5 mph - N/A   Clear
5:15 AM 53.4 °F - 40.1 °F 61% 29.59 in 10.0 mi South 13.8 mph 18.4 mph N/A   Clear
5:35 AM 53.6 °F - 39.7 °F 59% 29.59 in 10.0 mi SSE 12.7 mph - N/A   Clear
5:55 AM 52.5 °F - 39.7 °F 62% 29.59 in 10.0 mi South 9.2 mph - N/A   Clear
6:15 AM 52.2 °F - 39.7 °F 63% 29.59 in 10.0 mi North - - N/A   Clear
6:35 AM 51.6 °F - 39.6 °F 63% 29.59 in 10.0 mi SSE 8.1 mph - N/A   Clear
6:55 AM 50.0 °F - 39.4 °F 67% 29.59 in 10.0 mi SE 6.9 mph - N/A   Clear
7:15 AM 49.1 °F - 39.6 °F 70% 29.58 in 10.0 mi SE 8.1 mph - N/A   Clear
7:35 AM 50.0 °F - 39.9 °F 68% 29.59 in 10.0 mi SSE 6.9 mph - N/A   Clear
7:55 AM 51.3 °F - 40.3 °F 66% 29.59 in 10.0 mi SSE 6.9 mph - N/A   Clear
8:15 AM 54.5 °F - 40.5 °F 59% 29.59 in 10.0 mi SSE 8.1 mph - N/A   Clear
8:35 AM 55.8 °F - 40.6 °F 57% 29.60 in 10.0 mi South 11.5 mph - N/A   Clear
8:55 AM 58.1 °F - 40.8 °F 53% 29.60 in 10.0 mi South 12.7 mph 19.6 mph N/A   Clear
9:15 AM 58.8 °F - 40.6 °F 51% 29.60 in 10.0 mi South 15.0 mph 18.4 mph N/A   Clear
9:35 AM 60.1 °F - 40.5 °F 48% 29.60 in 10.0 mi South 13.8 mph 18.4 mph N/A   Clear
9:55 AM 60.6 °F - 40.3 °F 47% 29.59 in 10.0 mi South 12.7 mph 19.6 mph N/A   Clear
10:15 AM 62.4 °F - 40.1 °F 44% 29.59 in 10.0 mi South 12.7 mph - N/A   Clear
10:35 AM 63.1 °F - 39.9 °F 42% 29.58 in 10.0 mi SSW 9.2 mph - N/A   Clear
10:55 AM 63.9 °F - 39.9 °F 41% 29.59 in 10.0 mi South 15.0 mph - N/A   Clear
11:15 AM 64.8 °F - 40.1 °F 40% 29.59 in 10.0 mi SW 9.2 mph - N/A   Clear
11:35 AM 65.3 °F - 38.5 °F 37% 29.59 in 10.0 mi SSW 6.9 mph - N/A   Clear
11:55 AM 66.0 °F - 38.8 °F 37% 29.59 in 10.0 mi SW 9.2 mph - N/A   Clear
12:15 PM 66.2 °F - 39.6 °F 38% 29.59 in 10.0 mi South 6.9 mph - N/A   Clear
12:35 PM 67.3 °F - 39.0 °F 35% 29.58 in 10.0 mi South 5.8 mph - N/A   Clear
1:15 PM 68.5 °F - 37.9 °F 33% 29.57 in 10.0 mi SSW 4.6 mph - N/A   Clear
1:35 PM 70.0 °F - 37.8 °F 31% 29.56 in 10.0 mi SSE 8.1 mph - N/A   Clear
2:15 PM 70.7 °F - 37.0 °F 29% 29.56 in 10.0 mi South 5.8 mph - N/A   Clear
2:35 PM 71.2 °F - 36.7 °F 28% 29.56 in 10.0 mi South 4.6 mph - N/A   Clear
2:55 PM 72.0 °F - 36.9 °F 28% 29.56 in 10.0 mi South 8.1 mph - N/A   Clear
3:15 PM 72.3 °F - 37.0 °F 28% 29.57 in 10.0 mi SW 9.2 mph - N/A   Clear
3:35 PM 72.0 °F - 36.3 °F 27% 29.57 in 10.0 mi Calm Calm - N/A   Clear
3:55 PM 73.6 °F - 36.0 °F 25% 29.57 in 10.0 mi WSW 6.9 mph - N/A   Clear
4:15 PM 73.4 °F - 35.4 °F 25% 29.58 in 10.0 mi SW 4.6 mph 17.3 mph N/A   Clear
4:35 PM 73.4 °F - 34.9 °F 24% 29.58 in 10.0 mi West 8.1 mph - N/A   Clear
4:55 PM 72.9 °F - 35.1 °F 25% 29.59 in 10.0 mi West 5.8 mph - N/A   Clear
5:15 PM 72.5 °F - 34.9 °F 25% 29.60 in 10.0 mi West 5.8 mph - N/A   Clear
5:35 PM 72.1 °F - 34.7 °F 25% 29.61 in 10.0 mi WNW 5.8 mph - N/A   Clear
5:55 PM 70.9 °F - 35.6 °F 27% 29.62 in 10.0 mi West 10.4 mph - N/A   Clear
6:15 PM 68.9 °F - 35.6 °F 29% 29.62 in 10.0 mi WNW 5.8 mph - N/A   Clear
6:35 PM 67.1 °F - 35.8 °F 31% 29.63 in 10.0 mi NW 3.5 mph - N/A   Clear
6:55 PM 66.4 °F - 35.6 °F 32% 29.65 in 10.0 mi WNW 3.5 mph - N/A   Clear
7:15 PM 63.5 °F - 40.1 °F 42% 29.68 in 10.0 mi WNW 10.4 mph 18.4 mph N/A   Clear
7:35 PM 61.0 °F - 40.1 °F 46% 29.70 in 10.0 mi NW 11.5 mph 24.2 mph N/A   Clear
7:55 PM 58.5 °F - 39.7 °F 50% 29.72 in 10.0 mi NW 13.8 mph 24.2 mph N/A   Clear
8:15 PM 56.7 °F - 39.4 °F 52% 29.73 in 10.0 mi NNW 10.4 mph 17.3 mph N/A   Clear
8:35 PM 55.4 °F - 38.8 °F 54% 29.74 in 10.0 mi NNW 15.0 mph 21.9 mph N/A   Clear
8:55 PM 53.8 °F - 38.7 °F 57% 29.76 in 10.0 mi NNW 12.7 mph 17.3 mph N/A   Clear
9:15 PM 52.2 °F - 37.8 °F 58% 29.78 in 10.0 mi NNW 15.0 mph 24.2 mph N/A   Clear
9:35 PM 50.7 °F - 37.4 °F 60% 29.79 in 10.0 mi NNW 16.1 mph 26.5 mph N/A   Clear
9:55 PM 49.6 °F - 37.4 °F 63% 29.82 in 10.0 mi NNW 16.1 mph 23.0 mph N/A   Clear
10:15 PM 49.1 °F - 36.5 °F 62% 29.85 in 10.0 mi NNW 12.7 mph 23.0 mph N/A   Clear
10:35 PM 48.2 °F - 36.1 °F 63% 29.87 in 10.0 mi NNW 17.3 mph 25.3 mph N/A   Clear
10:55 PM 47.5 °F - 36.5 °F 66% 29.88 in 10.0 mi North 24.2 mph 31.1 mph N/A   Scattered Clouds
11:15 PM 46.4 °F 40.7 °F 35.8 °F 67% 29.91 in 10.0 mi NNW 12.7 mph 25.3 mph N/A   Scattered Clouds
11:35 PM 45.7 °F 39.5 °F 34.7 °F 65% 29.96 in 10.0 mi NNW 13.8 mph 24.2 mph N/A   Clear
11:55 PM 45.5 °F 38.3 °F 34.5 °F 65% 29.98 in 10.0 mi North 17.3 mph 23.0 mph N/A   Clear